Dewpoint
17 13 12 10 8 9 12 11 12 8 6 6 6 4 8 2 4 1 1 4 4 4 5 3 2 -1 1 2 4 4 10 13 15 20 24 23 51 49 50 52 54 55 54 55 59 59 58 57 64 65 64 65 66 66 67 66 66 67 66 67 66 67 68 68 66 66 66 65 65 66 63 64 65 66 66 66 67 67 69 66 65 66 67 67 66 68
15 14 11 10 7 8 13 15 18 12 11 6 7 10 8 7 -0 3 4 5 5 18 6 8 3 3 3 6 5 7 10 6 11 18 24 22 32 46 44 48 52 53 52 53 59 61 61 59 65 66 65 66 65 65 66 66 66 66 66 66 66 67 67 67 66 67 66 65 66 65 65 65 66 66 66 66 67 67 67 66 67 67 66 66 66 67
17 14 12 9 9 11 13 15 13 13 13 11 13 13 12 9 4 3 3 1 6 11 12 8 6 4 7 6 4 7 6 13 19 19 22 25 23 30 38 43 51 52 54 55 58 60 58 62 65 64 65 65 65 65 65 67 67 66 66 66 66 66 67 66 66 66 65 66 66 65 64 66 66 67 67 66 66 67 66 68 68 68 67 68 66 66
21 14 12 8 11 13 11 10 14 16 17 13 14 17 15 10 4 2 7 8 7 12 12 11 8 9 10 10 11 11 6 11 6 6 13 17 23 24 26 28 49 50 52 56 59 59 58 58 62 64 65 66 65 65 65 66 67 67 66 65 66 67 67 66 66 66 67 66 65 65 66 67 67 66 67 66 67 67 67 67 67 67 67 67 66 65
16 17 14 10 7 9 14 11 14 20 20 22 21 18 13 9 6 3 7 4 10 9 18 13 15 12 12 10 10 15 14 8 5 4 11 18 15 21 23 27 52 51 55 58 60 61 59 58 61 61 61 61 63 65 64 65 66 66 66 65 66 67 67 68 67 67 66 65 65 66 66 66 66 67 66 66 64 66 66 66 66 67 66 65 66 66
15 17 18 9 6 5 10 10 13 21 20 20 22 18 14 11 7 3 7 4 10 13 15 13 12 13 12 9 6 6 9 10 10 10 5 12 18 16 20 33 55 57 57 57 58 59 60 61 60 62 61 60 61 63 64 66 66 65 65 65 67 67 67 66 66 66 64 64 64 65 65 63 64 64 63 62 63 64 65 66 66 67 65 65 65 65
13 15 16 6 10 6 5 10 15 18 17 17 13 12 10 7 8 9 8 10 6 5 12 14 7 11 11 8 8 8 6 6 11 13 7 7 13 13 13 18 50 53 54 55 58 59 62 61 61 61 61 59 60 63 65 65 64 64 65 66 66 66 66 67 66 65 66 64 64 65 64 65 63 63 65 66 66 65 65 67 66 66 66 64 64 65
15 14 13 12 15 11 13 16 16 15 14 11 11 9 9 8 6 6 7 8 10 13 13 9 6 8 8 11 13 11 12 6 9 8 12 5 15 15 17 15 35 54 55 57 57 60 62 60 60 59 59 60 60 63 63 64 64 64 63 64 65 65 65 66 66 66 66 64 64 63 64 64 65 63 64 65 65 66 65 65 65 65 65 63 63 65
22 16 15 13 15 12 12 15 14 10 10 10 9 6 4 2 3 5 5 7 13 14 9 8 6 9 8 11 11 10 8 8 9 14 11 9 15 17 18 15 34 45 53 53 56 59 61 60 61 61 60 60 62 64 64 62 64 63 63 63 64 64 64 65 66 66 65 65 65 64 63 63 64 65 65 65 65 64 65 65 65 64 63 64 64 65
12 13 11 14 18 16 16 14 10 8 9 10 9 6 7 11 12 11 12 9 11 10 10 9 9 5 4 12 13 13 11 13 14 25 37 40 32 40 39 37 40 51 51 54 56 60 61 61 62 62 61 62 65 62 62 63 63 63 63 64 63 63 63 64 65 66 65 65 64 64 63 62 63 64 65 65 64 64 65 65 65 65 65 65 66 65
13 20 19 12 12 13 14 12 8 6 7 10 9 7 9 11 13 13 12 10 11 10 8 7 6 3 5 10 26 21 39 37 37 35 37 38 40 38 39 35 37 48 50 52 56 60 61 62 62 61 62 64 62 61 61 62 64 64 65 64 63 62 63 64 64 64 65 65 65 65 64 63 63 64 64 65 65 65 65 64 63 64 65 64 65 65
10 15 16 15 16 11 13 10 9 8 8 9 9 8 9 13 14 15 15 11 10 8 7 4 4 4 5 15 27 33 36 38 40 39 38 41 40 36 42 37 35 38 47 54 56 57 60 60 61 62 63 63 61 61 60 61 62 63 65 64 64 63 64 64 65 64 65 65 65 65 65 64 64 64 64 64 64 64 63 64 63 65 65 63 65 66
10 10 14 15 19 15 16 12 10 10 12 13 12 11 12 10 17 9 7 9 7 8 8 3 2 6 9 27 35 33 35 38 39 38 40 41 38 38 39 39 45 57 56 57 57 58 59 59 59 59 59 61 60 59 59 59 60 61 62 63 64 64 65 65 65 64 64 64 64 64 65 65 65 65 64 65 64 63 63 63 63 63 62 62 63 64
12 10 9 13 12 19 18 13 11 9 10 11 10 12 11 8 7 10 6 9 7 9 7 8 5 7 38 33 36 39 40 41 42 44 47 48 49 50 48 46 50 57 57 56 56 56 56 57 58 59 60 60 60 60 59 58 59 61 62 62 63 63 64 64 64 63 63 64 64 65 65 65 65 65 64 64 64 63 64 63 62 62 62 62 62 63
13 11 9 9 11 16 16 15 10 9 10 9 9 8 12 11 9 10 5 11 11 12 22 16 11 10 15 41 39 41 41 41 41 44 47 49 49 51 50 51 54 55 56 55 55 57 55 56 56 58 58 58 59 60 60 60 60 61 62 62 62 62 63 64 63 63 63 64 65 65 65 65 65 65 64 64 65 63 62 62 62 63 62 62 61 63
11 13 13 8 8 14 13 12 12 9 7 11 10 9 10 13 11 7 13 13 18 17 18 19 17 31 36 40 40 41 38 40 42 44 46 47 47 49 52 54 55 56 55 55 55 56 56 57 58 59 58 58 58 59 59 60 61 62 62 62 62 62 63 63 63 62 63 63 64 65 65 65 65 65 64 64 63 63 63 63 62 64 63 62 63 63
12 17 15 15 14 13 13 13 10 10 12 14 11 12 10 9 5 16 17 19 25 20 15 19 21 37 39 39 40 41 41 40 41 42 45 48 50 53 53 54 55 55 54 55 56 56 57 57 59 60 58 58 59 59 59 60 61 62 62 62 62 62 62 63 62 62 63 64 64 64 65 65 65 64 63 62 62 62 62 64 63 63 62 62 63 63
18 22 16 14 13 14 13 13 12 10 9 11 11 8 8 5 6 15 10 17 13 11 16 17 16 27 30 33 40 42 42 41 42 44 47 49 49 52 54 54 54 55 55 55 55 56 57 58 58 59 59 60 60 60 60 61 62 62 63 62 62 62 62 62 62 62 64 63 63 64 64 64 64 63 63 62 61 62 63 63 64 63 63 61 63 61
13 13 15 15 13 15 15 12 11 11 9 7 10 12 7 11 9 14 15 12 14 16 14 14 12 31 26 34 39 41 42 44 45 45 47 48 49 51 52 53 54 55 54 54 56 57 56 56 56 58 59 59 59 60 62 63 63 63 62 62 62 63 63 62 62 62 64 64 63 64 64 64 63 63 62 62 62 62 61 61 63 61 63 62 62 60
22 17 14 13 11 14 15 10 14 10 9 8 9 10 13 14 18 16 13 11 15 14 17 14 12 31 38 39 42 41 44 46 44 47 49 49 50 51 53 53 54 55 55 55 56 56 57 57 57 58 57 58 59 60 62 62 62 61 61 62 62 62 62 62 62 62 64 63 63 63 63 64 62 61 61 62 62 61 60 60 61 61 62 62 60 61
20 27 18 16 11 13 15 13 12 11 12 8 9 10 12 22 20 14 30 13 11 13 12 13 19 35 42 40 42 45 45 48 47 48 49 50 51 52 53 54 54 53 53 55 56 57 58 58 59 59 58 59 59 60 61 61 61 61 61 61 62 61 61 62 62 63 63 64 63 63 63 62 61 61 61 61 61 60 59 60 60 62 62 60 62 61
16 21 20 21 14 11 14 13 12 10 9 10 9 10 8 13 13 12 17 17 15 17 20 18 17 36 40 44 43 45 47 47 48 49 50 50 52 53 52 53 52 53 53 54 55 58 57 57 58 59 58 59 59 59 59 59 60 60 61 62 62 61 61 62 63 63 63 63 63 63 62 62 61 61 60 61 60 59 60 59 61 61 60 61 61 61
22 24 20 18 16 16 12 11 13 12 9 8 9 7 6 12 14 13 13 22 22 16 18 29 25 34 43 47 47 48 49 49 49 50 50 50 50 50 50 51 51 52 52 53 54 56 56 56 57 57 59 59 60 60 59 58 59 60 61 61 62 62 62 62 63 62 62 64 63 63 63 62 61 60 61 60 59 59 58 60 60 59 61 61 59 61
32 17 16 16 16 15 16 15 15 13 10 6 6 10 9 10 12 13 16 23 20 21 20 27 23 33 44 48 48 48 48 48 48 48 49 48 49 49 49 49 49 50 51 52 53 54 54 54 54 54 55 56 57 59 60 60 60 61 61 60 61 61 62 63 62 62 63 63 63 64 63 62 60 61 60 60 60 59 59 59 59 59 59 59 59 58
26 22 15 19 17 15 16 16 19 17 11 13 14 15 11 10 10 15 16 28 22 20 28 27 19 31 43 48 48 47 46 46 46 46 47 46 47 48 48 48 49 49 50 51 51 52 52 52 52 53 55 54 55 56 58 59 58 58 60 60 60 61 63 62 62 62 63 63 63 63 63 63 62 59 59 60 60 59 59 60 59 58 57 59 59 58
26 32 24 17 19 15 15 16 18 24 18 29 23 16 19 17 23 27 23 24 21 23 21 22 29 41 46 47 47 46 44 44 45 45 46 46 46 46 47 47 48 48 48 49 49 50 50 50 51 52 53 54 56 55 56 57 57 58 58 59 61 61 61 62 63 62 63 63 62 61 61 63 63 59 59 60 59 59 59 59 59 58 59 56 55 57
34 35 31 28 21 26 30 31 31 26 29 24 25 21 26 28 19 34 37 26 22 31 26 36 35 41 42 45 45 44 44 43 43 44 44 44 44 45 45 46 46 46 46 47 47 47 47 48 49 50 51 52 54 55 57 57 58 58 59 59 60 61 61 61 61 62 62 61 61 61 62 62 61 59 60 59 59 58 57 57 57 57 56 56 59 57
35 31 30 31 31 28 29 33 40 31 27 26 29 36 35 36 39 33 28 27 37 35 27 38 41 39 41 43 42 42 42 42 42 42 42 42 43 43 44 44 44 43 44 45 45 45 45 46 47 48 50 50 51 53 55 56 58 59 59 59 60 61 61 61 62 61 59 59 59 59 60 61 62 61 61 59 59 58 58 57 56 56 55 56 55 58
37 30 33 36 35 33 31 32 34 33 28 32 35 39 40 40 40 39 40 39 36 30 27 39 41 41 41 40 40 41 41 41 41 41 42 42 41 42 42 41 40 41 41 42 43 43 44 45 46 47 48 49 49 51 53 54 55 57 59 59 59 60 60 60 60 59 59 59 59 60 59 61 60 60 60 57 58 58 56 55 56 55 55 55 56 59
39 33 38 38 36 35 33 34 35 34 37 36 37 38 40 41 40 41 40 41 39 37 36 40 41 40 40 40 40 40 40 40 40 40 40 39 40 40 40 39 39 39 40 41 42 42 43 43 44 45 46 47 48 49 51 52 54 57 58 59 59 59 60 60 59 59 59 59 60 60 60 60 60 60 60 60 59 58 56 56 56 55 54 53 55 58
36 33 37 35 32 33 36 33 30 31 36 35 35 36 39 41 40 39 40 41 41 42 42 40 38 37 39 40 39 40 40 39 38 38 38 38 38 39 39 38 38 38 39 40 41 41 42 42 43 44 45 46 47 48 49 51 53 55 56 58 59 59 60 60 59 60 59 59 59 60 59 59 59 59 60 59 59 59 57 55 54 54 53 55 56 56
36 33 36 37 30 30 33 32 31 34 37 36 36 36 37 38 37 39 38 40 40 39 41 39 37 36 38 39 38 38 37 37 37 37 37 37 37 37 37 38 38 38 38 39 40 41 41 41 42 43 44 45 46 47 49 50 51 53 54 55 56 59 60 59 59 59 58 59 59 59 58 58 58 58 59 59 59 59 57 55 54 54 54 55 55 56
34 31 31 34 31 30 36 37 34 35 35 34 30 36 37 36 39 39 39 40 39 41 39 35 36 38 38 38 36 36 36 36 36 36 37 37 37 37 37 37 38 38 38 39 40 40 41 41 42 43 43 44 46 47 49 50 50 52 52 53 54 55 56 58 58 58 58 58 59 58 58 57 56 56 57 58 58 58 58 58 56 55 55 56 58 58
36 32 28 33 29 30 35 36 38 34 27 29 36 37 38 37 38 38 37 38 39 39 37 38 37 38 38 37 36 35 35 35 36 37 37 37 36 37 37 37 38 39 38 38 39 40 41 41 40 41 42 43 45 48 50 49 51 52 52 51 51 52 53 53 55 58 58 58 58 58 57 57 56 56 57 57 57 57 58 58 58 58 58 58 58 58
35 34 29 34 27 25 34 34 30 27 27 34 37 36 38 38 38 37 37 37 38 38 38 37 36 36 36 35 35 35 35 35 36 36 37 37 37 37 37 37 38 39 39 38 39 41 40 41 40 39 41 42 45 48 50 47 48 50 50 51 50 50 51 52 52 53 56 57 57 57 57 57 57 56 56 55 55 56 57 58 58 58 58 58 58 58
33 31 30 32 28 29 28 29 25 27 34 36 35 35 37 37 36 37 36 37 37 37 37 36 35 35 35 35 35 35 34 34 34 35 36 37 37 37 37 37 38 40 39 39 39 40 40 40 40 39 40 41 42 44 47 48 48 48 49 48 48 50 50 51 51 52 53 53 54 57 57 57 56 56 56 56 56 56 56 57 57 56 57 57 58 58
36 34 32 29 33 25 25 27 30 33 32 32 33 34 35 35 35 35 32 35 37 37 36 35 35 35 35 35 35 34 34 34 33 34 35 35 36 36 37 37 38 39 40 40 40 40 41 41 40 40 40 40 40 42 44 47 48 47 45 45 47 48 50 50 49 50 51 52 52 54 55 56 57 57 56 56 56 57 58 58 58 58 58 57 57 56
36 34 35 30 31 31 27 28 27 29 27 30 34 36 38 38 38 38 36 35 37 37 37 35 35 35 35 35 35 35 35 34 32 32 34 34 34 35 35 37 39 39 38 39 39 40 41 41 40 39 40 40 39 40 43 45 46 45 45 44 45 43 47 48 48 50 50 51 51 52 53 54 54 54 54 54 54 54 54 55 55 56 57 57 57 56
38 38 35 29 29 28 29 27 27 25 27 33 34 36 38 38 39 38 37 32 36 36 36 36 35 35 35 36 35 36 35 33 31 32 35 35 36 35 35 36 37 39 37 36 37 38 38 39 41 39 39 39 40 40 41 44 45 45 43 43 44 43 43 45 48 49 50 50 51 52 53 53 53 53 53 53 52 52 52 53 53 53 53 54 55 54
38 32 30 28 29 28 30 29 25 29 28 33 35 36 36 39 40 38 31 29 36 37 36 36 35 35 36 37 40 35 33 32 31 33 36 37 37 36 36 37 38 38 38 37 37 38 39 39 40 39 38 38 39 40 39 41 42 42 42 42 42 40 41 45 45 46 49 48 47 48 51 50 48 49 50 51 50 49 49 51 52 51 50 50 51 52
31 30 29 29 30 29 29 27 28 30 33 35 36 36 37 40 39 30 26 31 39 36 37 37 37 39 39 38 36 33 34 34 34 36 37 37 37 37 37 37 38 38 38 37 38 38 38 39 39 38 38 37 38 41 40 39 38 39 41 41 38 37 38 42 46 46 45 43 43 44 45 45 46 47 49 50 51 51 52 52 52 50 49 49 49 50
29 29 29 29 29 30 29 27 27 28 33 36 36 37 37 36 28 28 36 42 41 37 37 38 38 38 37 36 36 37 38 36 36 36 36 35 36 37 36 36 36 36 37 39 40 39 38 38 39 39 39 39 38 38 41 41 38 37 38 39 38 37 38 39 39 40 40 40 40 41 41 43 44 45 46 46 48 50 50 50 49 49 48 48 48 48
29 29 28 29 31 32 29 27 26 23 32 36 36 35 35 32 31 37 39 42 40 39 38 38 37 36 36 36 36 37 37 37 36 35 34 34 34 34 34 34 35 36 38 37 38 40 40 38 39 40 41 41 41 39 38 38 38 37 37 36 36 37 38 38 39 39 39 38 39 39 40 41 42 43 44 44 44 44 44 46 49 50 49 49 48 47
33 28 29 29 32 26 25 24 24 30 35 36 36 32 36 37 40 41 41 40 40 38 37 36 36 36 36 36 36 37 37 36 36 37 36 35 34 33 33 34 34 34 35 34 35 36 39 39 40 41 41 42 42 42 40 39 38 37 36 37 38 38 39 38 38 38 39 39 39 39 39 39 39 40 41 42 42 42 42 44 44 42 46 50 48 47
33 32 32 29 32 29 27 29 34 36 36 36 37 37 38 40 42 39 39 39 37 37 37 36 36 36 35 35 35 35 36 36 36 37 37 36 35 34 34 34 34 34 33 34 35 36 36 36 38 39 40 40 42 42 43 41 39 38 37 37 39 39 39 38 38 38 37 37 37 38 36 38 39 39 39 40 40 40 40 40 41 42 42 43 41 43
35 33 34 32 32 35 36 36 36 35 35 35 36 37 37 38 40 41 38 37 36 36 36 35 35 35 34 34 33 33 34 34 34 35 36 37 37 37 36 36 35 35 34 34 35 35 35 36 37 36 36 38 40 42 43 44 42 41 42 41 40 40 42 41 40 39 37 35 36 37 35 35 35 35 37 38 37 38 39 39 39 38 39 40 40 40
37 34 32 31 32 29 28 35 34 34 35 35 35 36 37 38 38 40 40 40 39 36 35 35 35 35 34 34 34 33 33 33 33 33 34 35 36 36 36 36 36 36 36 35 38 37 38 37 35 36 36 35 37 40 43 43 43 43 43 43 43 40 39 40 43 43 43 41 37 37 37 37 35 34 34 35 34 35 37 38 37 35 35 36 38 40
29 31 29 29 29 29 30 32 34 34 35 35 35 35 35 36 38 40 40 40 40 39 36 34 34 34 34 33 32 32 32 33 32 32 32 33 34 34 34 35 36 36 38 39 41 40 38 38 38 39 39 40 40 40 42 44 43 43 44 42 43 41 40 39 38 39 37 37 39 39 38 39 34 36 36 34 33 33 35 37 37 34 33 34 35 36
28 29 27 28 27 29 30 31 32 33 34 35 35 35 35 35 36 38 38 37 36 36 36 36 35 32 31 30 30 30 30 30 30 30 30 30 32 33 34 34 35 38 41 41 41 42 42 41 37 37 39 41 43 43 43 44 44 46 45 44 43 41 40 39 36 35 36 37 37 37 36 38 36 36 35 33 32 32 33 35 36 35 34 35 35 35
27 26 27 27 27 27 30 30 29 29 30 34 35 36 36 36 35 35 35 36 36 36 36 36 36 36 35 33 32 30 28 27 27 27 27 29 30 31 32 34 35 37 39 41 40 42 41 40 40 39 35 35 38 42 43 42 41 43 40 38 37 37 39 38 37 36 34 34 35 35 35 38 35 36 37 35 33 33 34 33 34 35 34 34 35 35
29 31 29 26 26 25 26 27 30 33 33 34 34 35 35 35 34 33 34 34 35 35 35 35 35 34 36 37 35 32 30 30 29 29 29 28 29 31 31 31 32 33 35 39 40 39 41 40 40 39 36 37 40 38 36 34 34 34 34 35 36 36 35 36 38 36 34 33 33 34 36 35 36 35 35 37 36 35 34 34 34 34 34 35 35 35